Flag for U.S.A. Weather past 2 weeks in Acworth, Georgia, U.S.A.

Now
69 °F

Clear.


Feels Like: 69 °F
Forecast: 70 / 93 °F
Wind: No wind

Location: Cartersville Airport

Current Time: Aug 5, 2015 at 4:42:53 AM

Latest Report: Aug 5, 2015 at 3:53 AM


Visibility: 10 mi

Pressure: 29.98 "Hg

Humidity: 90%

Dew point: 66 °F

Location of AcworthLocation

Historic Weather in Acworth — Graph

°F

Acworth temperature yesterday

Maximum temperature yesterday: 97 °F (at 4:53 PM)
Minimum temperature yesterday: 62 °F (at 2:53 AM)
Average temperature yesterday: 79 °F

Past Weeks' High & Low Weather Summary

 TemperatureHumidityPressure
High97 °F (Aug 4, 4:53 PM)97% (Jul 23, 12:53 AM)30.01 "Hg (Jul 23, 12:53 AM)
Low62 °F (Aug 2, 3:53 AM)29% (Aug 3, 2:53 PM)29.79 "Hg (Jul 21, 4:53 PM)
Average79 °F73%29.93 "Hg
* Reported Jul 21 2:53 AM — Aug 5 2:53 AM, Acworth, Weather by CustomWeather, © 2015

Note: Actual official high and low records may vary slightly from our data, if they occured in-between our weather recording intervals... More about our weather records

Advertising

Acworth weather history for previous 24 hours

 ConditionsComfort  
Time TempWeatherWind HumidityBarometerVisibility
2:53 AM
Wed, Aug 5
70 °FClear.No wind87%29.98 "Hg10 mi
1:53 AM71 °FPassing clouds.No wind84%29.99 "Hg10 mi
12:53 AM72 °FClear.No wind84%29.99 "Hg10 mi
11:53 PM
Tue, Aug 4
73 °FPassing clouds.No wind81%29.98 "Hg10 mi
10:53 PM73 °FPassing clouds.No wind81%29.98 "Hg10 mi
9:53 PM76 °FClear.No wind74%29.97 "Hg10 mi
8:53 PM80 °FPartly sunny.3 mph64%29.95 "Hg10 mi
7:53 PM86 °FSunny.3 mph57%29.92 "Hg10 mi
6:53 PM94 °FSunny.6 mph35%29.91 "Hg10 mi
5:53 PM95 °FSunny.3 mph31%29.92 "Hg10 mi
4:53 PM97 °FSunny.3 mph30%29.93 "Hg10 mi
3:53 PM96 °FSunny.No wind34%29.96 "Hg10 mi
2:53 PM94 °FSunny.No wind37%29.97 "Hg10 mi
1:53 PM94 °FSunny.N/A40%29.99 "Hg10 mi
12:53 PM90 °FSunny.5 mph45%30.00 "Hg10 mi
11:53 AM90 °FSunny.6 mph47%30.00 "Hg10 mi
10:53 AM86 °FSunny.3 mph51%30.00 "Hg10 mi
9:53 AM80 °FSunny.3 mph58%30.00 "Hg10 mi
8:53 AM71 °FSunny.No wind73%30.00 "Hg10 mi
7:53 AM67 °FSunny.No wind85%29.98 "Hg10 mi
6:53 AM63 °FClear.No wind90%29.98 "Hg10 mi
5:53 AM62 °FClear.No wind90%29.96 "Hg10 mi
4:53 AM63 °FClear.No wind87%29.94 "Hg10 mi
Weather by CustomWeather, © 2015

See weather overviewHow to use our weather pages